Starlink 35528

operational
NORAD ID: 66094 Int'l Des: 2025-236 Owner: SPXS Country: US Constellation: starlink
NOTLE

About Starlink 35528

Description loading...

Live Position

Loading 3D Globe...

Upcoming Passes

Altitude History

Altitude vs Time

uPlot chart will show altitude changes over time

Two-Line Element Set

1 66094C 25236K 25293.06298611 .00571280 00000+0 87331-3 0 2931
2 66094 53.1611 48.3561 0008628 263.0900 245.1166 16.03019567 19
Epoch: Oct 20, 2025 • Age: 159 hours

Current Status

Altitude 254.0 km
Velocity 7.76 km/s
Sub-Earth Point -51.08°S, 6.63°E
Launch Date Oct 19, 2025
Age 7 days
Type internet

Technical Details

Classification Payload
Mass 575.00 kg
Dry Mass 530.00 kg
Total Mass 575.00 kg
Length 0.30 m
Diameter 4.10 m
Span 29.00 m
Shape Box + pan
Manufacturer SPXS
Bus Type Starlink V2MO
Phase Status In Orbit
Owner/State SPXS/US

Large Constellations

Loading constellations...